M I D A S
Marine Information and Data Acquisition System
Tripno 2197 of the Zeeleeuw from 2011-10-13 07:27:03 to 2011-10-13 12:12:58
Back to CruiseResearch ActivitiesStationsMapUnderway DataData graphs

EquipmentUnitsComments
TimeDGPSUTC
LatitudeDGPSDM.mWGS84
LongitudeDGPSDM.mWGS84
SpeedMeteo Stationm/sRelative wind speed
DirectionMeteo StationdegRelative wind direction
TemperatureMeteo Stationdeg CelciusAir temperature
PressureMeteo StationPaAtmospheric pressure
HumidityMeteo Station%Relative humidity
Missing or incorrect values are displayed as -999
Metereological data collected by the RV Zeeleeuw from 2011-10-13 07:23:24 to 2011-10-13 12:28:02
                                                                                    Next 1000 lines
Time Latitude Longitude Speed Direction Temperature Pressure Humidity
2011-10-13 07:23:34 51°13.636 2°56.012 -999 316 12.4 102760 52
2011-10-13 07:23:39 51°13.637 2°56.007 0.1 307 12.4 102760 52
2011-10-13 07:23:44 51°13.638 2°56.001 0.1 26 12.4 102760 52
2011-10-13 07:23:50 51°13.64 2°55.993 -999 54 12.4 102760 52
2011-10-13 07:23:56 51°13.642 2°55.983 -999 23 12.4 102760 52
2011-10-13 07:24:01 51°13.644 2°55.974 -999 306 12.4 102760 52
2011-10-13 07:24:07 51°13.646 2°55.962 -999 254 12.4 102760 52
2011-10-13 07:24:12 51°13.648 2°55.951 -999 306 12.4 102760 52
2011-10-13 07:24:17 51°13.65 2°55.941 -999 270 12.4 102760 52
2011-10-13 07:24:22 51°13.653 2°55.93 -999 306 12.4 102760 52
2011-10-13 07:24:27 51°13.655 2°55.92 -999 253 12.4 102760 52
2011-10-13 07:24:32 51°13.657 2°55.911 -999 306 12.4 102760 52
2011-10-13 07:24:37 51°13.659 2°55.901 -999 28 12.4 102760 52
2011-10-13 07:24:42 51°13.661 2°55.892 -999 55 12.4 102760 52
2011-10-13 07:24:47 51°13.663 2°55.883 -999 257 12.4 102760 52
2011-10-13 07:24:52 51°13.665 2°55.874 -999 306 12.4 102760 52
2011-10-13 07:24:57 51°13.667 2°55.865 -999 248 12.4 102760 52
2011-10-13 07:25:02 51°13.67 2°55.856 -999 306 12.4 102760 52
2011-10-13 07:25:07 51°13.672 2°55.848 -999 257 12.4 102760 52
2011-10-13 07:25:12 51°13.674 2°55.84 0.2 306 12.4 102760 52
2011-10-13 07:25:17 51°13.676 2°55.832 0.1 28 12.4 102770 52
2011-10-13 07:25:22 51°13.678 2°55.824 0.1 305 12.4 102770 52
2011-10-13 07:25:27 51°13.68 2°55.816 0.1 27 12.5 102760 52
2011-10-13 07:25:32 51°13.682 2°55.809 -999 310 12.5 102760 52
2011-10-13 07:25:37 51°13.683 2°55.802 -999 259 12.4 102760 50
2011-10-13 07:25:42 51°13.685 2°55.795 -999 306 12.4 102760 50
2011-10-13 07:25:47 51°13.687 2°55.789 -999 266 12.4 102770 52
2011-10-13 07:25:52 51°13.689 2°55.782 -999 306 12.4 102770 52
2011-10-13 07:25:57 51°13.69 2°55.776 -999 262 12.4 102770 52
2011-10-13 07:26:02 51°13.691 2°55.769 -999 305 12.4 102770 52
2011-10-13 07:26:07 51°13.692 2°55.763 -999 255 12.4 102770 52
2011-10-13 07:26:12 51°13.694 2°55.757 -999 305 12.4 102770 52
2011-10-13 07:26:17 51°13.695 2°55.752 -999 258 12.5 102770 52
2011-10-13 07:26:22 51°13.695 2°55.746 -999 306 12.5 102770 52
2011-10-13 07:26:27 51°13.696 2°55.742 -999 24 12.5 102770 52
2011-10-13 07:26:32 51°13.697 2°55.74 0.1 306 12.5 102770 52
2011-10-13 07:26:37 51°13.697 2°55.74 0.7 23 12.5 102770 52
2011-10-13 07:26:42 51°13.698 2°55.74 0.2 308 12.5 102770 52
2011-10-13 07:26:47 51°13.698 2°55.741 0.1 22 12.5 102770 52
2011-10-13 07:26:52 51°13.699 2°55.743 0.8 329 12.5 102770 52
2011-10-13 07:26:58 51°13.7 2°55.745 1.4 323 12.5 102770 52
2011-10-13 07:27:01 51°13.7 2°55.746 2.7 333 12.5 102770 52
2011-10-13 07:27:06 51°13.701 2°55.748 2.8 336 12.5 102770 52
2011-10-13 07:27:12 51°13.702 2°55.751 2.9 335 12.5 102770 52
2011-10-13 07:27:17 51°13.703 2°55.752 2.2 334 12.5 102770 53
2011-10-13 07:27:22 51°13.703 2°55.752 0.6 338 12.5 102770 53
2011-10-13 07:27:26 51°13.703 2°55.752 0.2 335 12.5 102770 52
2011-10-13 07:27:31 51°13.703 2°55.751 0.1 334 12.5 102770 52
2011-10-13 07:27:36 51°13.702 2°55.75 -999 343 12.4 102770 52
2011-10-13 07:27:41 51°13.7 2°55.748 -999 4 12.4 102770 52
2011-10-13 07:27:46 51°13.698 2°55.746 0.1 7 12.4 102770 51
2011-10-13 07:27:52 51°13.696 2°55.743 0.1 356 12.4 102770 51
2011-10-13 07:27:58 51°13.693 2°55.74 0.1 359 12.4 102770 51
2011-10-13 07:28:03 51°13.69 2°55.738 -999 2 12.4 102770 51
2011-10-13 07:28:07 51°13.689 2°55.736 -999 357 12.4 102770 51
2011-10-13 07:28:12 51°13.688 2°55.735 0.9 353 12.4 102770 51
2011-10-13 07:28:18 51°13.688 2°55.734 0.3 355 12.4 102770 50
2011-10-13 07:28:23 51°13.689 2°55.735 0.1 355 12.4 102770 50
2011-10-13 07:28:27 51°13.691 2°55.735 1.8 355 12.4 102770 51
2011-10-13 07:28:32 51°13.694 2°55.736 2 358 12.4 102770 51
2011-10-13 07:28:37 51°13.697 2°55.736 2.6 355 12.4 102770 51
2011-10-13 07:28:43 51°13.701 2°55.735 2.4 356 12.4 102770 51
2011-10-13 07:28:47 51°13.704 2°55.734 0.8 357 12.4 102770 52
2011-10-13 07:28:53 51°13.709 2°55.732 1.9 359 12.4 102770 52
2011-10-13 07:28:58 51°13.713 2°55.729 0.2 3 12.4 102770 50
2011-10-13 07:29:02 51°13.716 2°55.727 0.1 6 12.4 102770 50
2011-10-13 07:29:07 51°13.72 2°55.724 0.1 6 12.4 102770 50
2011-10-13 07:29:12 51°13.725 2°55.721 -999 6 12.4 102770 50
2011-10-13 07:29:17 51°13.729 2°55.718 -999 2 12.4 102770 51
2011-10-13 07:29:22 51°13.734 2°55.714 -999 8 12.4 102770 51
2011-10-13 07:29:27 51°13.74 2°55.71 -999 6 12.3 102770 51
2011-10-13 07:29:31 51°13.744 2°55.707 -999 2 12.3 102770 51
2011-10-13 07:29:36 51°13.75 2°55.703 -999 360 12.3 102770 51
2011-10-13 07:29:41 51°13.756 2°55.698 -999 350 12.3 102770 51
2011-10-13 07:29:46 51°13.762 2°55.694 -999 354 12.3 102770 51
2011-10-13 07:29:51 51°13.768 2°55.688 0.1 338 12.3 102770 51
2011-10-13 07:29:55 51°13.773 2°55.684 1.3 345 12.3 102770 51
2011-10-13 07:30:00 51°13.78 2°55.679 2.5 347 12.3 102770 51
2011-10-13 07:30:05 51°13.787 2°55.673 3.1 351 12.3 102770 51
2011-10-13 07:30:10 51°13.794 2°55.668 3.8 352 12.3 102770 51
2011-10-13 07:30:15 51°13.8 2°55.663 3.5 348 12.4 102770 52
2011-10-13 07:30:20 51°13.808 2°55.657 2.7 334 12.4 102770 52
2011-10-13 07:30:25 51°13.815 2°55.652 2 354 12.4 102770 51
2011-10-13 07:30:31 51°13.824 2°55.646 2.9 345 12.4 102770 51
2011-10-13 07:30:35 51°13.83 2°55.641 3 343 12.4 102770 52
2011-10-13 07:30:40 51°13.837 2°55.636 3.6 349 12.4 102770 52
2011-10-13 07:30:45 51°13.845 2°55.632 3.7 339 12.3 102770 50
2011-10-13 07:30:50 51°13.853 2°55.627 4.5 347 12.3 102770 50
2011-10-13 07:30:55 51°13.861 2°55.622 4.6 350 12.4 102770 49
2011-10-13 07:31:00 51°13.869 2°55.618 5.2 349 12.4 102770 49
2011-10-13 07:31:04 51°13.876 2°55.614 4.7 346 12.4 102770 50
2011-10-13 07:31:09 51°13.885 2°55.61 5.1 349 12.4 102770 50
2011-10-13 07:31:14 51°13.893 2°55.605 4.5 354 12.4 102770 51
2011-10-13 07:31:19 51°13.902 2°55.601 5.1 356 12.4 102770 51
2011-10-13 07:31:24 51°13.911 2°55.597 4 354 12.4 102770 52
2011-10-13 07:31:29 51°13.92 2°55.593 4.6 350 12.4 102770 52
2011-10-13 07:31:34 51°13.929 2°55.588 5 345 12.4 102770 51
2011-10-13 07:31:39 51°13.938 2°55.584 4 349 12.4 102770 51
2011-10-13 07:31:43 51°13.946 2°55.58 4 345 12.4 102770 50
2011-10-13 07:31:49 51°13.957 2°55.574 4.2 342 12.4 102770 50
2011-10-13 07:31:53 51°13.965 2°55.571 4.1 346 12.4 102770 51
2011-10-13 07:31:59 51°13.977 2°55.564 4.7 341 12.4 102770 51
2011-10-13 07:32:03 51°13.984 2°55.56 5.3 341 12.4 102770 52
2011-10-13 07:32:09 51°13.996 2°55.553 5.1 347 12.4 102770 52
2011-10-13 07:32:13 51°14.004 2°55.548 4.2 347 12.4 102770 51
2011-10-13 07:32:19 51°14.016 2°55.541 5 348 12.4 102770 51
2011-10-13 07:32:23 51°14.024 2°55.536 4.7 342 12.4 102780 51
2011-10-13 07:32:28 51°14.033 2°55.529 4.7 350 12.4 102780 51
2011-10-13 07:32:34 51°14.044 2°55.52 4.6 343 12.4 102780 51
2011-10-13 07:32:39 51°14.054 2°55.512 5.3 350 12.4 102780 51
2011-10-13 07:32:43 51°14.062 2°55.506 2.6 344 12.4 102780 52
2011-10-13 07:32:49 51°14.073 2°55.497 4.7 345 12.4 102780 52
2011-10-13 07:32:54 51°14.083 2°55.488 4.7 349 12.4 102780 52
2011-10-13 07:32:59 51°14.092 2°55.48 4.2 343 12.4 102780 52
2011-10-13 07:33:03 51°14.1 2°55.473 5.3 345 12.4 102780 50
2011-10-13 07:33:08 51°14.109 2°55.464 4.8 348 12.4 102780 50
2011-10-13 07:33:13 51°14.118 2°55.456 6.3 352 12.4 102780 50
2011-10-13 07:33:19 51°14.129 2°55.446 4.9 350 12.4 102780 50
2011-10-13 07:33:24 51°14.138 2°55.437 4.6 353 12.4 102780 52
2011-10-13 07:33:30 51°14.149 2°55.427 4.6 351 12.4 102780 52
2011-10-13 07:33:35 51°14.158 2°55.418 4.9 354 12.4 102780 50
2011-10-13 07:33:41 51°14.169 2°55.407 5 351 12.4 102780 50
2011-10-13 07:33:47 51°14.18 2°55.396 5.6 351 12.4 102780 51
2011-10-13 07:33:52 51°14.189 2°55.387 7.1 349 12.4 102780 51
2011-10-13 07:33:57 51°14.198 2°55.378 4.9 351 12.4 102780 51
2011-10-13 07:34:02 51°14.207 2°55.369 6.8 357 12.4 102780 51
2011-10-13 07:34:07 51°14.216 2°55.36 6.2 1 12.4 102780 52
2011-10-13 07:34:12 51°14.225 2°55.351 4.4 352 12.4 102780 52
2011-10-13 07:34:17 51°14.234 2°55.342 5 355 12.4 102780 52
2011-10-13 07:34:22 51°14.243 2°55.333 4.9 1 12.4 102780 52
2011-10-13 07:34:28 51°14.253 2°55.322 5.3 356 12.4 102780 52
2011-10-13 07:34:32 51°14.261 2°55.314 5.7 -999 12.4 102780 52
2011-10-13 07:34:37 51°14.27 2°55.305 6.7 359 12.4 102780 52
2011-10-13 07:34:42 51°14.28 2°55.296 6.1 1 12.4 102780 52
2011-10-13 07:34:47 51°14.289 2°55.286 5.8 1 12.4 102780 51
2011-10-13 07:34:52 51°14.299 2°55.277 7.7 2 12.4 102780 51
2011-10-13 07:34:57 51°14.309 2°55.266 3.1 2 12.4 102780 51
2011-10-13 07:35:02 51°14.319 2°55.256 4.8 2 12.4 102780 51
2011-10-13 07:35:07 51°14.329 2°55.246 5.7 359 12.4 102780 52
2011-10-13 07:35:12 51°14.339 2°55.235 6.7 1 12.4 102780 52
2011-10-13 07:35:17 51°14.349 2°55.225 5.6 357 12.4 102780 52
2011-10-13 07:35:22 51°14.36 2°55.213 5.4 358 12.4 102780 52
2011-10-13 07:35:27 51°14.37 2°55.203 4.4 6 12.4 102770 51
2011-10-13 07:35:32 51°14.38 2°55.191 5.7 1 12.4 102770 51
2011-10-13 07:35:36 51°14.389 2°55.182 5.2 2 12.4 102780 52
2011-10-13 07:35:42 51°14.402 2°55.169 6.8 1 12.4 102780 52
2011-10-13 07:35:47 51°14.412 2°55.158 5.8 2 12.4 102780 51
2011-10-13 07:35:52 51°14.423 2°55.146 5.7 6 12.4 102780 51
2011-10-13 07:35:56 51°14.431 2°55.137 5.8 2 12.4 102780 51
2011-10-13 07:36:01 51°14.442 2°55.126 5.8 -999 12.4 102780 51
2011-10-13 07:36:06 51°14.453 2°55.114 6.8 6 12.4 102780 52
2011-10-13 07:36:11 51°14.463 2°55.102 4.7 2 12.4 102780 52
2011-10-13 07:36:16 51°14.474 2°55.09 6.3 5 12.4 102780 49
2011-10-13 07:36:20 51°14.483 2°55.08 6.5 2 12.4 102780 49
2011-10-13 07:36:25 51°14.495 2°55.068 7.3 -999 12.4 102780 50
2011-10-13 07:36:31 51°14.509 2°55.053 5.6 2 12.4 102780 50
2011-10-13 07:36:35 51°14.519 2°55.042 7.4 1 12.4 102780 50
2011-10-13 07:36:40 51°14.531 2°55.028 6.3 2 12.4 102780 50
2011-10-13 07:36:44 51°14.541 2°55.017 5.3 3 12.4 102780 51
2011-10-13 07:36:50 51°14.555 2°54.998 5.9 5 12.4 102780 51
2011-10-13 07:36:55 51°14.567 2°54.981 6.7 360 12.4 102780 51
2011-10-13 07:37:00 51°14.579 2°54.964 9 358 12.4 102780 51
2011-10-13 07:37:04 51°14.59 2°54.951 8.2 359 12.3 102780 49
2011-10-13 07:37:09 51°14.602 2°54.934 6.6 360 12.3 102780 49
2011-10-13 07:37:14 51°14.615 2°54.917 7.5 358 12.3 102770 50
2011-10-13 07:37:19 51°14.628 2°54.899 7.8 358 12.3 102770 50
2011-10-13 07:37:24 51°14.641 2°54.884 7.3 358 12.4 102780 50
2011-10-13 07:37:28 51°14.651 2°54.87 8.9 356 12.4 102780 50
2011-10-13 07:37:33 51°14.664 2°54.853 7.3 357 12.4 102770 51
2011-10-13 07:37:39 51°14.68 2°54.832 10.1 358 12.4 102770 51
2011-10-13 07:37:44 51°14.694 2°54.816 8.9 359 12.4 102780 51
2011-10-13 07:37:48 51°14.704 2°54.802 7.4 359 12.4 102780 51
2011-10-13 07:37:53 51°14.717 2°54.786 6.8 359 12.4 102770 49
2011-10-13 07:37:59 51°14.733 2°54.766 7.4 356 12.4 102770 49
2011-10-13 07:38:04 51°14.747 2°54.75 9.3 359 12.4 102770 49
2011-10-13 07:38:08 51°14.759 2°54.737 7.3 357 12.4 102770 49
2011-10-13 07:38:13 51°14.772 2°54.722 8.5 359 12.4 102770 50
2011-10-13 07:38:19 51°14.789 2°54.704 7.9 358 12.4 102770 50
2011-10-13 07:38:24 51°14.804 2°54.688 7.2 356 12.4 102770 50
2011-10-13 07:38:29 51°14.818 2°54.674 9.4 358 12.4 102770 50
2011-10-13 07:38:33 51°14.83 2°54.662 8.2 358 12.4 102770 51
2011-10-13 07:38:38 51°14.844 2°54.648 9.4 357 12.4 102770 51
2011-10-13 07:38:44 51°14.861 2°54.631 10.7 358 12.4 102770 49
2011-10-13 07:38:49 51°14.876 2°54.617 7.8 -999 12.4 102770 49
2011-10-13 07:38:53 51°14.887 2°54.605 6.7 3 12.5 102770 48
2011-10-13 07:38:58 51°14.901 2°54.59 7.3 359 12.5 102770 48
2011-10-13 07:39:04 51°14.917 2°54.571 8.6 360 12.5 102770 50
2011-10-13 07:39:08 51°14.928 2°54.56 7.1 358 12.5 102770 50
2011-10-13 07:39:13 51°14.943 2°54.546 7.7 358 12.5 102770 49
2011-10-13 07:39:19 51°14.961 2°54.531 6.9 355 12.5 102770 49
2011-10-13 07:39:24 51°14.976 2°54.521 8.9 352 12.5 102780 50
2011-10-13 07:39:28 51°14.988 2°54.512 7.2 353 12.5 102780 50
2011-10-13 07:39:33 51°15.003 2°54.5 8.9 356 12.5 102780 50
2011-10-13 07:39:39 51°15.02 2°54.486 10.6 356 12.5 102780 50
2011-10-13 07:39:44 51°15.035 2°54.474 7.6 357 12.5 102780 50
2011-10-13 07:39:48 51°15.047 2°54.464 6.5 356 12.5 102780 50
2011-10-13 07:39:53 51°15.061 2°54.45 6 357 12.6 102780 49
2011-10-13 07:39:59 51°15.078 2°54.433 8.2 357 12.6 102780 49
2011-10-13 07:40:04 51°15.092 2°54.419 7.3 358 12.6 102780 51
2011-10-13 07:40:08 51°15.103 2°54.408 8.7 354 12.6 102780 51
2011-10-13 07:40:13 51°15.117 2°54.394 6.5 356 12.6 102780 50
2011-10-13 07:40:18 51°15.131 2°54.381 9.2 353 12.6 102780 50
2011-10-13 07:40:24 51°15.148 2°54.367 7.1 356 12.7 102780 50
2011-10-13 07:40:28 51°15.16 2°54.358 10.6 352 12.7 102780 50
2011-10-13 07:40:33 51°15.175 2°54.349 8 350 12.7 102780 49
2011-10-13 07:40:38 51°15.19 2°54.34 8.8 350 12.7 102780 49
2011-10-13 07:40:44 51°15.209 2°54.332 10.7 353 12.7 102780 51
2011-10-13 07:40:48 51°15.221 2°54.327 7.4 349 12.7 102780 51
2011-10-13 07:40:53 51°15.237 2°54.323 10.3 348 12.7 102780 51
2011-10-13 07:40:59 51°15.255 2°54.319 8.4 349 12.7 102780 51
2011-10-13 07:41:03 51°15.267 2°54.318 10.5 349 12.7 102780 50
2011-10-13 07:41:08 51°15.283 2°54.317 10.9 349 12.7 102780 50
2011-10-13 07:41:13 51°15.298 2°54.317 8.2 346 12.7 102780 49
2011-10-13 07:41:19 51°15.317 2°54.318 12 348 12.7 102780 49
2011-10-13 07:41:23 51°15.329 2°54.32 11.4 348 12.7 102780 49
2011-10-13 07:41:28 51°15.344 2°54.322 12.5 348 12.7 102780 49
2011-10-13 07:41:33 51°15.36 2°54.324 11.1 347 12.7 102780 48
2011-10-13 07:41:38 51°15.375 2°54.326 10.3 348 12.7 102780 48
2011-10-13 07:41:44 51°15.393 2°54.33 11.5 347 12.7 102770 49
2011-10-13 07:41:48 51°15.405 2°54.332 8.9 346 12.7 102770 49
2011-10-13 07:41:53 51°15.421 2°54.336 11.3 346 12.6 102770 49
2011-10-13 07:41:59 51°15.439 2°54.34 11.1 346 12.6 102770 49
2011-10-13 07:42:04 51°15.454 2°54.344 11.7 346 12.6 102780 49
2011-10-13 07:42:08 51°15.467 2°54.346 12.5 347 12.6 102780 49
2011-10-13 07:42:13 51°15.482 2°54.349 8.1 347 12.6 102780 49
2011-10-13 07:42:19 51°15.501 2°54.353 4.9 346 12.6 102780 49
2011-10-13 07:42:24 51°15.516 2°54.354 10 347 12.6 102770 48
2011-10-13 07:42:28 51°15.529 2°54.354 9.5 350 12.6 102770 48
2011-10-13 07:42:33 51°15.544 2°54.353 7.4 348 12.6 102780 49
2011-10-13 07:42:38 51°15.56 2°54.352 9.7 350 12.6 102780 49
2011-10-13 07:42:44 51°15.579 2°54.349 7.8 353 12.6 102780 49
2011-10-13 07:42:48 51°15.591 2°54.348 11.5 354 12.6 102780 49
2011-10-13 07:42:53 51°15.607 2°54.345 7.8 351 12.6 102780 50
2011-10-13 07:42:58 51°15.623 2°54.342 10.1 351 12.6 102780 50
2011-10-13 07:43:03 51°15.639 2°54.339 7.9 352 12.6 102780 49
2011-10-13 07:43:08 51°15.654 2°54.336 7.4 352 12.6 102780 49
2011-10-13 07:43:13 51°15.67 2°54.333 10.3 349 12.7 102770 50
2011-10-13 07:43:19 51°15.689 2°54.33 11.3 355 12.7 102770 50
2011-10-13 07:43:23 51°15.702 2°54.327 11.2 356 12.7 102770 49
2011-10-13 07:43:28 51°15.718 2°54.324 8.7 354 12.7 102770 49
2011-10-13 07:43:33 51°15.734 2°54.321 9.5 352 12.7 102780 48
2011-10-13 07:43:39 51°15.753 2°54.317 11.6 353 12.7 102780 48
2011-10-13 07:43:44 51°15.769 2°54.313 11.5 354 12.6 102780 48
2011-10-13 07:43:48 51°15.781 2°54.311 10.6 357 12.6 102780 48
2011-10-13 07:43:53 51°15.797 2°54.308 8.3 355 12.7 102780 50
2011-10-13 07:43:58 51°15.813 2°54.304 9 355 12.7 102780 50
2011-10-13 07:44:04 51°15.832 2°54.3 9.7 355 12.6 102780 48
2011-10-13 07:44:08 51°15.845 2°54.297 8.5 355 12.6 102780 48
2011-10-13 07:44:13 51°15.861 2°54.294 8 356 12.6 102780 46
2011-10-13 07:44:19 51°15.88 2°54.289 9.8 355 12.6 102780 46
2011-10-13 07:44:24 51°15.896 2°54.285 8.3 355 12.6 102780 48
2011-10-13 07:44:28 51°15.909 2°54.282 9.7 355 12.6 102780 48
2011-10-13 07:44:33 51°15.925 2°54.278 9.9 352 12.6 102780 47
2011-10-13 07:44:39 51°15.944 2°54.273 10.2 348 12.6 102780 47
2011-10-13 07:44:44 51°15.96 2°54.269 8 350 12.6 102780 48
2011-10-13 07:44:48 51°15.972 2°54.266 8.3 350 12.6 102780 48
2011-10-13 07:44:53 51°15.988 2°54.262 10 350 12.6 102780 47
2011-10-13 07:44:59 51°16.007 2°54.257 8.8 352 12.6 102780 47
2011-10-13 07:45:04 51°16.023 2°54.253 7.5 353 12.6 102790 48
2011-10-13 07:45:08 51°16.035 2°54.25 6.8 355 12.6 102790 48
2011-10-13 07:45:13 51°16.05 2°54.247 7.7 354 12.6 102790 47
2011-10-13 07:45:19 51°16.067 2°54.242 7.9 358 12.6 102790 47
2011-10-13 07:45:23 51°16.079 2°54.239 7.2 358 12.6 102780 48
2011-10-13 07:45:28 51°16.092 2°54.235 7.3 357 12.6 102780 48
2011-10-13 07:45:33 51°16.106 2°54.231 6.8 354 12.7 102790 47
2011-10-13 07:45:38 51°16.118 2°54.227 7.6 358 12.7 102790 47
2011-10-13 07:45:44 51°16.133 2°54.221 6.5 1 12.6 102780 47
2011-10-13 07:45:48 51°16.141 2°54.218 6 359 12.6 102780 47
2011-10-13 07:45:53 51°16.152 2°54.213 6.6 1 12.7 102790 49
2011-10-13 07:45:59 51°16.163 2°54.207 5.5 1 12.7 102790 49
2011-10-13 07:46:03 51°16.17 2°54.204 7.3 2 12.7 102790 48
2011-10-13 07:46:08 51°16.179 2°54.199 5.8 7 12.7 102790 48
2011-10-13 07:46:14 51°16.189 2°54.194 6 6 12.8 102800 49
2011-10-13 07:46:19 51°16.196 2°54.19 5.1 7 12.8 102800 49
2011-10-13 07:46:23 51°16.202 2°54.187 6.2 7 12.8 102790 50
2011-10-13 07:46:28 51°16.209 2°54.184 4.5 4 12.8 102790 50
2011-10-13 07:46:33 51°16.216 2°54.181 5.8 3 12.8 102790 49
2011-10-13 07:46:39 51°16.223 2°54.179 5.8 3 12.8 102790 49
2011-10-13 07:46:44 51°16.228 2°54.177 7.4 359 12.8 102790 48
2011-10-13 07:46:48 51°16.233 2°54.177 7.6 356 12.8 102790 48
2011-10-13 07:46:53 51°16.238 2°54.177 7 358 12.8 102790 48
2011-10-13 07:46:59 51°16.243 2°54.177 6.9 355 12.8 102790 48
2011-10-13 07:47:04 51°16.247 2°54.179 7.7 355 12.8 102790 49
2011-10-13 07:47:08 51°16.249 2°54.18 6.5 354 12.8 102790 49
2011-10-13 07:47:13 51°16.253 2°54.181 6.4 351 12.8 102790 47
2011-10-13 07:47:19 51°16.256 2°54.184 7.3 349 12.8 102790 47
2011-10-13 07:47:24 51°16.259 2°54.187 6.8 348 12.8 102790 48
2011-10-13 07:47:28 51°16.261 2°54.189 6.5 346 12.8 102790 48
2011-10-13 07:47:33 51°16.263 2°54.192 6.6 347 12.8 102790 47
2011-10-13 07:47:38 51°16.264 2°54.195 6.8 343 12.8 102790 47
2011-10-13 07:47:44 51°16.266 2°54.199 6.3 344 12.7 102790 48
2011-10-13 07:47:48 51°16.266 2°54.202 6.8 336 12.7 102790 48
2011-10-13 07:47:53 51°16.267 2°54.206 8.2 337 12.7 102790 47
2011-10-13 07:47:59 51°16.267 2°54.211 6.9 333 12.7 102790 47
2011-10-13 07:48:04 51°16.267 2°54.215 7.8 328 12.7 102790 49
2011-10-13 07:48:08 51°16.266 2°54.219 5.2 326 12.7 102790 49
2011-10-13 07:48:13 51°16.265 2°54.223 5.8 324 12.8 102790 48
2011-10-13 07:48:19 51°16.264 2°54.228 6.7 323 12.8 102790 48
2011-10-13 07:48:24 51°16.263 2°54.232 6.4 326 12.8 102790 48
2011-10-13 07:48:28 51°16.262 2°54.234 6.1 326 12.8 102790 48
2011-10-13 07:48:33 51°16.26 2°54.236 6.8 322 12.8 102800 47
2011-10-13 07:48:39 51°16.259 2°54.238 6.2 324 12.8 102800 47
2011-10-13 07:48:44 51°16.257 2°54.238 6.5 320 12.8 102800 49
2011-10-13 07:48:48 51°16.257 2°54.238 7 320 12.8 102800 49
2011-10-13 07:48:53 51°16.255 2°54.237 6.1 320 12.8 102800 48
2011-10-13 07:48:59 51°16.254 2°54.235 5.6 320 12.8 102800 48
2011-10-13 07:49:03 51°16.253 2°54.234 6.7 317 12.8 102800 47
2011-10-13 07:49:08 51°16.252 2°54.232 5.4 317 12.8 102800 47
2011-10-13 07:49:13 51°16.25 2°54.23 5.5 22 12.8 102790 48
2011-10-13 07:49:19 51°16.249 2°54.227 5.7 37 12.8 102790 48
2011-10-13 07:49:24 51°16.248 2°54.225 5.5 20 12.8 102790 48
2011-10-13 07:49:28 51°16.247 2°54.224 5.7 37 12.8 102790 48
2011-10-13 07:49:33 51°16.245 2°54.221 5.1 19 12.8 102790 47
2011-10-13 07:49:38 51°16.244 2°54.219 4.7 32 12.8 102790 47
2011-10-13 07:49:44 51°16.242 2°54.217 5.5 22 12.7 102800 48
2011-10-13 07:49:48 51°16.241 2°54.215 5.8 234 12.7 102800 48
2011-10-13 07:49:53 51°16.24 2°54.213 6.4 26 12.7 102800 47
2011-10-13 07:49:58 51°16.239 2°54.21 6.5 240 12.7 102800 47
2011-10-13 07:50:04 51°16.237 2°54.207 5.7 20 12.7 102800 48
2011-10-13 07:50:08 51°16.236 2°54.206 6.8 241 12.7 102800 48
2011-10-13 07:50:13 51°16.235 2°54.203 6.9 24 12.7 102810 48
2011-10-13 07:50:19 51°16.233 2°54.2 5.3 241 12.7 102810 48
2011-10-13 07:50:24 51°16.232 2°54.198 6 22 12.7 102800 47
2011-10-13 07:50:28 51°16.23 2°54.196 5.7 238 12.7 102800 47
2011-10-13 07:50:33 51°16.229 2°54.193 6.3 27 12.8 102810 48
2011-10-13 07:50:39 51°16.227 2°54.191 4.9 242 12.8 102810 48
2011-10-13 07:50:44 51°16.226 2°54.188 5.7 22 12.7 102800 47
2011-10-13 07:50:48 51°16.225 2°54.186 6.4 246 12.7 102800 47
2011-10-13 07:50:54 51°16.223 2°54.183 6.2 19 12.8 102800 47
2011-10-13 07:50:59 51°16.221 2°54.181 5.6 245 12.8 102800 47
2011-10-13 07:51:04 51°16.22 2°54.178 5.4 246 12.8 102800 47
2011-10-13 07:51:08 51°16.219 2°54.176 6.8 248 12.8 102800 47
2011-10-13 07:51:13 51°16.217 2°54.173 6.4 246 12.8 102810 47
2011-10-13 07:51:19 51°16.215 2°54.17 5.8 246 12.8 102810 47
2011-10-13 07:51:24 51°16.214 2°54.167 6.7 20 12.8 102810 48
2011-10-13 07:51:28 51°16.213 2°54.165 6.5 249 12.8 102810 48
2011-10-13 07:51:33 51°16.211 2°54.163 6.6 250 12.8 102810 47
2011-10-13 07:51:38 51°16.21 2°54.16 6.3 252 12.8 102810 47
2011-10-13 07:51:44 51°16.208 2°54.156 6.4 251 12.8 102810 46
2011-10-13 07:51:48 51°16.207 2°54.155 6.7 249 12.8 102810 46
2011-10-13 07:51:53 51°16.205 2°54.152 6.4 252 12.8 102810 48
2011-10-13 07:51:59 51°16.203 2°54.149 5.6 254 12.8 102810 48
2011-10-13 07:52:04 51°16.202 2°54.146 6 255 12.8 102810 48
2011-10-13 07:52:08 51°16.201 2°54.143 5.4 255 12.8 102810 48
2011-10-13 07:52:13 51°16.199 2°54.141 4.7 254 12.8 102810 47
2011-10-13 07:52:19 51°16.197 2°54.138 5.5 259 12.8 102810 47
2011-10-13 07:52:24 51°16.196 2°54.135 5.2 257 12.8 102810 48
2011-10-13 07:52:28 51°16.195 2°54.133 4.9 262 12.8 102810 48
2011-10-13 07:52:33 51°16.193 2°54.13 4.8 256 12.8 102810 48
2011-10-13 07:52:39 51°16.191 2°54.126 5.2 257 12.8 102810 48
2011-10-13 07:52:43 51°16.19 2°54.125 5.5 259 12.8 102810 48
2011-10-13 07:52:48 51°16.189 2°54.122 5.1 260 12.8 102810 48
2011-10-13 07:52:54 51°16.187 2°54.118 4.3 264 12.8 102810 48
2011-10-13 07:52:59 51°16.186 2°54.116 6.4 259 12.8 102810 48
2011-10-13 07:53:03 51°16.185 2°54.114 6.4 256 12.8 102810 49
2011-10-13 07:53:08 51°16.183 2°54.111 4.9 261 12.8 102810 49
2011-10-13 07:53:13 51°16.182 2°54.108 5.7 260 12.9 102820 49
2011-10-13 07:53:19 51°16.18 2°54.105 5.9 261 12.9 102820 49
2011-10-13 07:53:24 51°16.178 2°54.102 5.8 260 12.9 102810 48
2011-10-13 07:53:28 51°16.177 2°54.1 5.8 256 12.9 102810 48
2011-10-13 07:53:33 51°16.176 2°54.098 5.9 259 12.9 102820 48
2011-10-13 07:53:39 51°16.174 2°54.094 5.8 260 12.9 102820 48
2011-10-13 07:53:44 51°16.173 2°54.092 4.6 259 12.9 102810 48
2011-10-13 07:53:48 51°16.171 2°54.089 6.8 257 12.9 102810 48
2011-10-13 07:53:53 51°16.17 2°54.087 6.2 256 12.9 102810 47
2011-10-13 07:53:59 51°16.168 2°54.083 5.3 261 12.9 102810 47
2011-10-13 07:54:04 51°16.167 2°54.081 5 262 12.9 102810 48
2011-10-13 07:54:08 51°16.165 2°54.078 4.2 263 12.9 102810 48
2011-10-13 07:54:13 51°16.164 2°54.076 4.9 262 12.9 102810 48
2011-10-13 07:54:19 51°16.162 2°54.072 3.6 263 12.9 102810 48
2011-10-13 07:54:24 51°16.161 2°54.07 4.4 262 12.9 102810 47
2011-10-13 07:54:28 51°16.159 2°54.067 4.7 265 12.9 102810 47
2011-10-13 07:54:33 51°16.158 2°54.065 4.3 264 12.9 102820 49
2011-10-13 07:54:38 51°16.156 2°54.062 3.2 268 12.9 102820 49
2011-10-13 07:54:44 51°16.155 2°54.059 3.6 264 12.8 102820 47
2011-10-13 07:54:48 51°16.153 2°54.057 6.1 259 12.8 102820 47
2011-10-13 07:54:53 51°16.152 2°54.054 6.6 261 12.8 102820 46
2011-10-13 07:54:59 51°16.15 2°54.05 6 263 12.8 102820 46
2011-10-13 07:55:04 51°16.149 2°54.048 5.8 263 12.8 102820 47
2011-10-13 07:55:08 51°16.147 2°54.046 5.3 262 12.8 102820 47
2011-10-13 07:55:13 51°16.146 2°54.043 4.9 262 12.8 102820 48
2011-10-13 07:55:19 51°16.144 2°54.04 5.3 260 12.8 102820 48
2011-10-13 07:55:23 51°16.143 2°54.037 6.2 258 12.9 102820 49
2011-10-13 07:55:28 51°16.141 2°54.035 6.3 259 12.9 102820 49
2011-10-13 07:55:33 51°16.14 2°54.032 6.7 256 12.8 102820 47
2011-10-13 07:55:39 51°16.138 2°54.029 5.2 256 12.8 102820 47
2011-10-13 07:55:44 51°16.136 2°54.026 6.2 257 12.8 102820 48
2011-10-13 07:55:48 51°16.135 2°54.024 5.2 257 12.8 102820 48
2011-10-13 07:55:53 51°16.134 2°54.021 5.3 257 12.8 102820 48
2011-10-13 07:55:58 51°16.132 2°54.019 5.2 259 12.8 102820 48
2011-10-13 07:56:04 51°16.13 2°54.015 6.7 259 12.8 102820 48
2011-10-13 07:56:08 51°16.129 2°54.013 6 257 12.8 102820 48
2011-10-13 07:56:13 51°16.128 2°54.01 6 258 12.8 102820 48
2011-10-13 07:56:18 51°16.126 2°54.008 5.1 260 12.8 102820 48
2011-10-13 07:56:24 51°16.124 2°54.005 5.8 259 12.8 102820 47
2011-10-13 07:56:28 51°16.123 2°54.003 5.1 259 12.8 102820 47
2011-10-13 07:56:33 51°16.121 2°54 5 259 12.8 102820 47
2011-10-13 07:56:38 51°16.12 2°53.998 6.2 259 12.8 102820 47
2011-10-13 07:56:44 51°16.118 2°53.994 6.4 256 12.8 102820 48
2011-10-13 07:56:48 51°16.116 2°53.992 6.4 257 12.8 102820 48
2011-10-13 07:56:53 51°16.115 2°53.99 6 257 12.8 102820 48
2011-10-13 07:56:59 51°16.113 2°53.987 6.4 260 12.8 102820 48
2011-10-13 07:57:04 51°16.112 2°53.984 6.1 259 12.8 102820 47
2011-10-13 07:57:08 51°16.11 2°53.982 4.7 260 12.8 102820 47
2011-10-13 07:57:13 51°16.109 2°53.979 5.9 261 12.8 102820 48
2011-10-13 07:57:19 51°16.107 2°53.976 4.8 262 12.8 102820 48
2011-10-13 07:57:24 51°16.105 2°53.973 4.7 261 12.8 102820 48
2011-10-13 07:57:28 51°16.104 2°53.971 6 260 12.8 102820 48
2011-10-13 07:57:34 51°16.102 2°53.968 5.3 260 12.8 102820 46
2011-10-13 07:57:39 51°16.101 2°53.965 6 260 12.8 102820 46
2011-10-13 07:57:43 51°16.1 2°53.963 5.8 262 12.8 102830 48
2011-10-13 07:57:48 51°16.098 2°53.96 6 261 12.8 102830 48
2011-10-13 07:57:53 51°16.097 2°53.958 5.7 260 12.7 102820 48
2011-10-13 07:57:59 51°16.095 2°53.955 5.3 259 12.7 102820 48
2011-10-13 07:58:04 51°16.092 2°53.952 6.4 258 12.7 102830 48
2011-10-13 07:58:08 51°16.09 2°53.95 5.1 258 12.7 102830 48
2011-10-13 07:58:13 51°16.087 2°53.948 4.3 262 12.8 102830 47
2011-10-13 07:58:18 51°16.083 2°53.945 5.7 259 12.8 102830 47
2011-10-13 07:58:24 51°16.077 2°53.942 4.8 261 12.8 102830 48
2011-10-13 07:58:28 51°16.073 2°53.941 5.1 255 12.8 102830 48
2011-10-13 07:58:33 51°16.067 2°53.938 5.2 20 12.7 102830 47
2011-10-13 07:58:38 51°16.06 2°53.937 5.1 249 12.7 102830 47
2011-10-13 07:58:44 51°16.051 2°53.934 5.2 250 12.7 102830 47
2011-10-13 07:58:48 51°16.044 2°53.932 5.2 251 12.7 102830 47
2011-10-13 07:58:53 51°16.035 2°53.929 5.7 252 12.7 102830 47
2011-10-13 07:58:59 51°16.024 2°53.925 6.6 257 12.7 102830 47
2011-10-13 07:59:04 51°16.015 2°53.92 5.2 254 12.7 102830 48
2011-10-13 07:59:08 51°16.007 2°53.916 5.3 260 12.7 102830 48
2011-10-13 07:59:13 51°15.997 2°53.91 4.5 261 12.8 102830 49
2011-10-13 07:59:19 51°15.984 2°53.903 5.7 257 12.8 102830 49
2011-10-13 07:59:23 51°15.976 2°53.897 4.7 255 12.8 102820 49
2011-10-13 07:59:28 51°15.964 2°53.889 5.7 251 12.8 102820 49
2011-10-13 07:59:34 51°15.949 2°53.878 5.8 250 12.8 102830 49
2011-10-13 07:59:39 51°15.937 2°53.868 4.9 247 12.8 102830 49
2011-10-13 07:59:43 51°15.926 2°53.86 4.2 247 12.8 102830 46
2011-10-13 07:59:48 51°15.913 2°53.849 4.3 245 12.8 102830 46
2011-10-13 07:59:53 51°15.899 2°53.837 3.9 21 12.8 102830 48
2011-10-13 07:59:59 51°15.882 2°53.822 5.6 248 12.8 102830 48
2011-10-13 08:00:04 51°15.867 2°53.81 5.5 247 12.8 102830 49
2011-10-13 08:00:08 51°15.856 2°53.798 5.6 246 12.8 102830 49
2011-10-13 08:00:13 51°15.841 2°53.784 5.2 248 12.8 102830 47
2011-10-13 08:00:19 51°15.824 2°53.766 4.8 248 12.8 102830 47
2011-10-13 08:00:24 51°15.808 2°53.752 5.4 251 12.8 102830 48
2011-10-13 08:00:28 51°15.795 2°53.739 5.5 248 12.8 102830 48
2011-10-13 08:00:33 51°15.78 2°53.726 5.2 246 12.8 102840 48
2011-10-13 08:00:38 51°15.765 2°53.711 4.3 248 12.8 102840 48
2011-10-13 08:00:44 51°15.746 2°53.691 4 21 12.8 102840 47
2011-10-13 08:00:48 51°15.734 2°53.678 3.7 240 12.8 102840 47
2011-10-13 08:00:53 51°15.719 2°53.661 4.4 29 12.8 102830 48
2011-10-13 08:00:59 51°15.701 2°53.641 3.9 239 12.8 102830 48
2011-10-13 08:01:04 51°15.686 2°53.623 3.6 27 12.8 102830 48
2011-10-13 08:01:08 51°15.674 2°53.61 3.9 242 12.8 102830 48
2011-10-13 08:01:13 51°15.659 2°53.592 4.3 21 12.8 102830 49
2011-10-13 08:01:19 51°15.64 2°53.572 4.6 244 12.8 102830 49
2011-10-13 08:01:24 51°15.625 2°53.554 5 26 12.8 102840 49
2011-10-13 08:01:28 51°15.613 2°53.541 3.9 240 12.8 102840 49
2011-10-13 08:01:33 51°15.598 2°53.524 5.1 244 12.8 102830 49
2011-10-13 08:01:39 51°15.58 2°53.504 4.9 245 12.8 102830 49
2011-10-13 08:01:44 51°15.565 2°53.487 4.5 246 12.8 102840 48
2011-10-13 08:01:48 51°15.553 2°53.473 3.9 240 12.8 102840 48
2011-10-13 08:01:53 51°15.537 2°53.457 4.5 20 12.9 102840 48
2011-10-13 08:01:59 51°15.52 2°53.435 4.1 240 12.9 102840 48
2011-10-13 08:02:04 51°15.504 2°53.419 4.8 19 12.9 102840 49
2011-10-13 08:02:08 51°15.493 2°53.405 4.4 239 12.9 102840 49
2011-10-13 08:02:14 51°15.474 2°53.385 4.7 20 12.9 102830 48
2011-10-13 08:02:19 51°15.459 2°53.367 3.8 240 12.9 102830 48
2011-10-13 08:02:24 51°15.444 2°53.35 4.2 27 12.9 102830 47
2011-10-13 08:02:28 51°15.432 2°53.337 3.8 241 12.9 102830 47
2011-10-13 08:02:33 51°15.417 2°53.319 3.6 22 12.8 102830 47
2011-10-13 08:02:38 51°15.402 2°53.301 3.1 244 12.8 102830 47
2011-10-13 08:02:44 51°15.386 2°53.279 3.2 21 12.9 102830 48
2011-10-13 08:02:48 51°15.374 2°53.265 2.9 244 12.9 102830 48
2011-10-13 08:02:53 51°15.36 2°53.244 2.4 22 12.9 102830 47
2011-10-13 08:02:58 51°15.346 2°53.226 1.9 248 12.9 102830 47
2011-10-13 08:03:04 51°15.33 2°53.202 1.4 22 12.9 102840 47
2011-10-13 08:03:08 51°15.318 2°53.187 3 239 12.9 102840 47
2011-10-13 08:03:13 51°15.304 2°53.167 2.5 27 12.8 102840 49
2011-10-13 08:03:19 51°15.287 2°53.144 3 248 12.8 102840 49
2011-10-13 08:03:24 51°15.273 2°53.125 3.2 20 12.8 102840 48
2011-10-13 08:03:28 51°15.262 2°53.11 3.2 251 12.8 102840 48
2011-10-13 08:03:33 51°15.248 2°53.09 2.9 247 12.8 102830 48
2011-10-13 08:03:39 51°15.231 2°53.068 3 250 12.8 102830 48
2011-10-13 08:03:44 51°15.217 2°53.048 3 252 12.8 102840 48
2011-10-13 08:03:48 51°15.206 2°53.033 3.8 251 12.8 102840 48
2011-10-13 08:03:53 51°15.191 2°53.015 3.4 21 12.8 102840 49
2011-10-13 08:03:59 51°15.174 2°52.992 3.6 244 12.8 102840 49
2011-10-13 08:04:04 51°15.159 2°52.974 5.1 25 12.8 102840 48
2011-10-13 08:04:08 51°15.148 2°52.96 4.4 245 12.8 102840 48
2011-10-13 08:04:14 51°15.13 2°52.938 3.8 22 12.8 102840 49
2011-10-13 08:04:19 51°15.116 2°52.919 3.3 246 12.8 102840 49
2011-10-13 08:04:24 51°15.101 2°52.901 3.2 247 12.8 102840 47
2011-10-13 08:04:28 51°15.09 2°52.887 2.8 246 12.8 102840 47
2011-10-13 08:04:33 51°15.076 2°52.867 2.8 26 12.8 102840 49
2011-10-13 08:04:39 51°15.058 2°52.846 3.5 242 12.8 102840 49
2011-10-13 08:04:44 51°15.044 2°52.827 3 21 12.8 102840 48
2011-10-13 08:04:48 51°15.033 2°52.813 3.4 245 12.8 102840 48
2011-10-13 08:04:53 51°15.019 2°52.794 3 247 12.8 102840 48
2011-10-13 08:04:59 51°15.001 2°52.772 3.4 248 12.8 102840 48
2011-10-13 08:05:04 51°14.987 2°52.754 3.4 250 12.8 102840 47
2011-10-13 08:05:08 51°14.975 2°52.739 2.9 247 12.8 102840 47
2011-10-13 08:05:13 51°14.961 2°52.72 3.4 23 12.8 102840 48
2011-10-13 08:05:18 51°14.947 2°52.703 2.8 248 12.8 102840 48
2011-10-13 08:05:24 51°14.93 2°52.68 3.3 247 12.8 102840 48
2011-10-13 08:05:28 51°14.918 2°52.666 3.2 243 12.8 102840 48
2011-10-13 08:05:33 51°14.904 2°52.648 3.1 248 12.8 102840 46
2011-10-13 08:05:39 51°14.885 2°52.628 3 247 12.8 102840 46
2011-10-13 08:05:44 51°14.871 2°52.611 3.2 248 12.8 102840 48
2011-10-13 08:05:48 51°14.858 2°52.598 3.3 244 12.8 102840 48
2011-10-13 08:05:53 51°14.843 2°52.583 2.7 20 12.8 102840 49
2011-10-13 08:05:59 51°14.825 2°52.564 3.5 32 12.8 102840 49
2011-10-13 08:06:04 51°14.809 2°52.548 3 21 12.8 102840 49
2011-10-13 08:06:08 51°14.797 2°52.536 3.8 237 12.8 102840 49
2011-10-13 08:06:13 51°14.781 2°52.52 4.2 26 12.8 102840 49
2011-10-13 08:06:19 51°14.763 2°52.501 4.9 239 12.8 102840 49
2011-10-13 08:06:24 51°14.748 2°52.485 4.2 22 12.8 102840 49
2011-10-13 08:06:28 51°14.736 2°52.472 4.2 243 12.8 102840 49
2011-10-13 08:06:33 51°14.722 2°52.453 3.9 26 12.8 102850 49
2011-10-13 08:06:39 51°14.705 2°52.43 2.7 242 12.8 102850 49
2011-10-13 08:06:44 51°14.693 2°52.41 2.9 21 12.8 102840 48
2011-10-13 08:06:48 51°14.682 2°52.393 2.2 240 12.8 102840 48
2011-10-13 08:06:53 51°14.671 2°52.371 2 244 12.8 102840 49
2011-10-13 08:06:59 51°14.657 2°52.344 1.2 238 12.8 102840 49
2011-10-13 08:07:04 51°14.647 2°52.32 1.1 28 12.8 102840 48
2011-10-13 08:07:08 51°14.639 2°52.301 0.3 241 12.8 102840 48
2011-10-13 08:07:13 51°14.629 2°52.277 0.5 21 12.8 102840 49
2011-10-13 08:07:19 51°14.616 2°52.25 1.4 30 12.8 102840 49
2011-10-13 08:07:24 51°14.604 2°52.227 1.4 21 12.8 102850 49
2011-10-13 08:07:28 51°14.594 2°52.211 2 238 12.8 102850 49
2011-10-13 08:07:33 51°14.581 2°52.191 2.6 20 12.8 102840 48
2011-10-13 08:07:38 51°14.567 2°52.173 2.5 243 12.8 102840 48
2011-10-13 08:07:44 51°14.55 2°52.152 2.4 244 12.8 102850 46
2011-10-13 08:07:48 51°14.538 2°52.139 2.2 241 12.8 102850 46
2011-10-13 08:07:53 51°14.524 2°52.122 2.3 27 12.8 102840 48
2011-10-13 08:07:58 51°14.509 2°52.107 3.9 237 12.8 102840 48
2011-10-13 08:08:04 51°14.49 2°52.089 5.3 20 12.8 102840 48
2011-10-13 08:08:08 51°14.478 2°52.076 4.3 241 12.8 102840 48
2011-10-13 08:08:13 51°14.463 2°52.06 5 22 12.8 102840 46
2011-10-13 08:08:19 51°14.448 2°52.037 3.4 252 12.8 102840 46
2011-10-13 08:08:24 51°14.436 2°52.019 3.2 250 12.8 102840 48
2011-10-13 08:08:28 51°14.427 2°52.003 1.9 261 12.8 102840 48
2011-10-13 08:08:33 51°14.42 2°51.982 1.4 261 12.8 102840 49
2011-10-13 08:08:39 51°14.41 2°51.959 1.4 41 12.8 102840 49
2011-10-13 08:08:44 51°14.404 2°51.94 2 23 12.8 102840 49
2011-10-13 08:08:48 51°14.399 2°51.926 2.1 33 12.8 102840 49
2011-10-13 08:08:53 51°14.395 2°51.908 1.4 23 12.8 102840 49
2011-10-13 08:08:59 51°14.389 2°51.888 0.8 34 12.8 102840 49
2011-10-13 08:09:04 51°14.385 2°51.873 0.5 28 12.8 102840 49
2011-10-13 08:09:08 51°14.382 2°51.861 1.9 39 12.8 102840 49
2011-10-13 08:09:13 51°14.379 2°51.847 1.6 26 12.8 102840 50
2011-10-13 08:09:19 51°14.376 2°51.832 1.5 35 12.8 102840 50
2011-10-13 08:09:24 51°14.374 2°51.82 1.9 21 12.8 102840 48
2011-10-13 08:09:28 51°14.373 2°51.811 3.1 36 12.8 102840 48
2011-10-13 08:09:33 51°14.372 2°51.801 3.1 25 12.8 102840 48
2011-10-13 08:09:38 51°14.371 2°51.792 3 38 12.8 102840 48
2011-10-13 08:09:44 51°14.37 2°51.782 3.5 20 12.8 102850 50
2011-10-13 08:09:48 51°14.369 2°51.776 3.5 39 12.8 102850 50
2011-10-13 08:09:53 51°14.368 2°51.769 3.8 21 12.9 102840 49
2011-10-13 08:09:58 51°14.368 2°51.761 4 32 12.9 102840 49
2011-10-13 08:10:04 51°14.367 2°51.752 3.5 22 12.9 102830 48
2011-10-13 08:10:08 51°14.366 2°51.746 3.7 34 12.9 102830 48
2011-10-13 08:10:13 51°14.366 2°51.737 3.5 23 12.8 102840 49
2011-10-13 08:10:19 51°14.365 2°51.726 3.7 35 12.8 102840 49
2011-10-13 08:10:24 51°14.364 2°51.717 3.2 21 12.8 102840 47
2011-10-13 08:10:28 51°14.364 2°51.709 4.2 43 12.8 102840 47
2011-10-13 08:10:33 51°14.364 2°51.699 4.3 40 12.8 102840 48
2011-10-13 08:10:39 51°14.364 2°51.687 4.4 38 12.8 102840 48
2011-10-13 08:10:44 51°14.363 2°51.677 4.3 36 12.8 102840 49
2011-10-13 08:10:48 51°14.363 2°51.669 5.3 42 12.8 102840 49
2011-10-13 08:10:54 51°14.364 2°51.656 4.9 39 12.8 102840 46
2011-10-13 08:10:59 51°14.364 2°51.646 4.5 37 12.8 102840 46
2011-10-13 08:11:03 51°14.364 2°51.637 5.1 37 12.8 102830 48
2011-10-13 08:11:08 51°14.365 2°51.627 5 37 12.8 102830 48
2011-10-13 08:11:13 51°14.366 2°51.616 5.1 34 12.9 102830 49
2011-10-13 08:11:19 51°14.367 2°51.604 5 35 12.9 102830 49
2011-10-13 08:11:24 51°14.368 2°51.593 4.1 31 12.9 102830 49
2011-10-13 08:11:28 51°14.369 2°51.585 4.2 33 12.9 102830 49
2011-10-13 08:11:33 51°14.37 2°51.574 4.6 32 12.8 102830 48
2011-10-13 08:11:39 51°14.372 2°51.562 5.1 34 12.8 102830 48
2011-10-13 08:11:44 51°14.374 2°51.551 5.4 32 12.8 102830 49
2011-10-13 08:11:48 51°14.375 2°51.543 4.8 30 12.8 102830 49
2011-10-13 08:11:53 51°14.377 2°51.533 4.9 31 12.8 102840 49
2011-10-13 08:11:58 51°14.379 2°51.523 4.8 29 12.8 102840 49
2011-10-13 08:12:04 51°14.382 2°51.511 4.5 30 12.8 102830 49
2011-10-13 08:12:08 51°14.383 2°51.503 4.7 29 12.8 102830 49
2011-10-13 08:12:13 51°14.385 2°51.493 4.1 27 12.8 102830 49
2011-10-13 08:12:19 51°14.387 2°51.48 4 35 12.8 102830 49
2011-10-13 08:12:24 51°14.389 2°51.47 4 34 12.8 102830 49
2011-10-13 08:12:28 51°14.39 2°51.462 4.3 36 12.8 102830 49
2011-10-13 08:12:33 51°14.391 2°51.453 4.3 35 12.8 102830 49
2011-10-13 08:12:39 51°14.392 2°51.441 3.8 37 12.8 102830 49
2011-10-13 08:12:43 51°14.393 2°51.433 2.2 36 12.7 102830 49
2011-10-13 08:12:48 51°14.393 2°51.423 4.4 32 12.7 102830 49
2011-10-13 08:12:54 51°14.394 2°51.412 3.8 22 12.8 102830 48
2011-10-13 08:12:58 51°14.394 2°51.405 4 43 12.8 102830 48
2011-10-13 08:13:03 51°14.394 2°51.395 4 40 12.8 102830 49
2011-10-13 08:13:08 51°14.394 2°51.386 4.7 38 12.8 102830 49
2011-10-13 08:13:13 51°14.394 2°51.377 4.6 39 12.8 102830 49
2011-10-13 08:13:19 51°14.394 2°51.366 4.2 45 12.8 102830 49
2011-10-13 08:13:24 51°14.394 2°51.358 5.2 41 12.8 102830 49
2011-10-13 08:13:28 51°14.394 2°51.351 4.6 43 12.8 102830 49
2011-10-13 08:13:33 51°14.394 2°51.342 4.5 44 12.8 102830 48
2011-10-13 08:13:39 51°14.394 2°51.332 4.6 44 12.8 102830 48
2011-10-13 08:13:44 51°14.393 2°51.324 3.9 26 12.8 102830 50
2011-10-13 08:13:48 51°14.393 2°51.317 4.9 44 12.8 102830 50
2011-10-13 08:13:53 51°14.393 2°51.309 4.4 44 12.8 102830 48
2011-10-13 08:13:58 51°14.392 2°51.301 5.3 44 12.8 102830 48
2011-10-13 08:14:04 51°14.391 2°51.291 4.6 21 12.7 102830 48
2011-10-13 08:14:08 51°14.391 2°51.285 4.6 33 12.7 102830 48
2011-10-13 08:14:13 51°14.39 2°51.277 4.1 28 12.7 102830 47
2011-10-13 08:14:18 51°14.389 2°51.269 4.1 32 12.7 102830 47
2011-10-13 08:14:24 51°14.388 2°51.26 4.2 22 12.7 102830 49
2011-10-13 08:14:28 51°14.387 2°51.253 4.1 44 12.7 102830 49
2011-10-13 08:14:33 51°14.387 2°51.246 4.7 22 12.7 102830 47
2011-10-13 08:14:39 51°14.385 2°51.237 4.3 44 12.7 102830 47
2011-10-13 08:14:44 51°14.384 2°51.229 3.9 22 12.7 102830 49
2011-10-13 08:14:48 51°14.384 2°51.223 4.2 34 12.7 102830 49
2011-10-13 08:14:53 51°14.382 2°51.215 4.2 23 12.7 102830 48
2011-10-13 08:14:59 51°14.381 2°51.206 4.2 40 12.7 102830 48
2011-10-13 08:15:04 51°14.379 2°51.198 3.9 27 12.7 102840 48
2011-10-13 08:15:08 51°14.379 2°51.192 3.9 33 12.7 102840 48
2011-10-13 08:15:13 51°14.377 2°51.185 3.9 21 12.7 102840 48
2011-10-13 08:15:19 51°14.375 2°51.176 4.2 30 12.7 102840 48
2011-10-13 08:15:24 51°14.374 2°51.169 4.4 23 12.7 102830 48
2011-10-13 08:15:28 51°14.373 2°51.163 4.5 34 12.7 102830 48
2011-10-13 08:15:33 51°14.371 2°51.155 4.9 24 12.7 102840 49
2011-10-13 08:15:39 51°14.369 2°51.147 4.4 32 12.7 102840 49
2011-10-13 08:15:44 51°14.367 2°51.139 3.8 22 12.7 102840 48
2011-10-13 08:15:48 51°14.366 2°51.134 3.9 37 12.7 102840 48
2011-10-13 08:15:53 51°14.364 2°51.126 4.1 21 12.7 102840 49
2011-10-13 08:15:59 51°14.362 2°51.117 3.5 31 12.7 102840 49
2011-10-13 08:16:04 51°14.36 2°51.11 4.2 27 12.7 102830 49
2011-10-13 08:16:08 51°14.359 2°51.105 3.5 38 12.7 102830 49
2011-10-13 08:16:13 51°14.357 2°51.097 3.9 25 12.7 102840 47
2011-10-13 08:16:19 51°14.354 2°51.089 3.2 39 12.7 102840 47
2011-10-13 08:16:24 51°14.353 2°51.081 4.2 26 12.7 102830 47
2011-10-13 08:16:28 51°14.351 2°51.076 3.7 34 12.7 102830 47
2011-10-13 08:16:33 51°14.349 2°51.069 3.9 23 12.7 102840 49
2011-10-13 08:16:39 51°14.347 2°51.06 3.5 30 12.7 102840 49
2011-10-13 08:16:44 51°14.345 2°51.053 3.7 26 12.7 102840 49
2011-10-13 08:16:48 51°14.343 2°51.047 2.8 40 12.7 102840 49
2011-10-13 08:16:53 51°14.342 2°51.04 2.7 21 12.7 102840 49
2011-10-13 08:16:59 51°14.339 2°51.032 3.7 33 12.7 102840 49
2011-10-13 08:17:04 51°14.338 2°51.024 4.6 19 12.7 102840 49
2011-10-13 08:17:08 51°14.336 2°51.019 5.3 34 12.7 102840 49
2011-10-13 08:17:13 51°14.334 2°51.011 4.2 24 12.7 102840 49
2011-10-13 08:17:19 51°14.332 2°51.003 4.5 40 12.7 102840 49
2011-10-13 08:17:23 51°14.33 2°50.997 3.2 21 12.7 102840 48
2011-10-13 08:17:28 51°14.328 2°50.99 3.7 32 12.7 102840 48
2011-10-13 08:17:34 51°14.326 2°50.982 4 27 12.7 102830 48
2011-10-13 08:17:38 51°14.324 2°50.976 4.3 32 12.7 102830 48
2011-10-13 08:17:44 51°14.322 2°50.967 4.6 26 12.7 102840 48
2011-10-13 08:17:48 51°14.32 2°50.962 4.3 33 12.7 102840 48
2011-10-13 08:17:53 51°14.319 2°50.955 4 24 12.7 102840 48
2011-10-13 08:17:59 51°14.316 2°50.946 3.5 32 12.7 102840 48
2011-10-13 08:18:04 51°14.314 2°50.939 3.7 28 12.7 102840 48
2011-10-13 08:18:08 51°14.312 2°50.934 3.2 36 12.7 102840 48
2011-10-13 08:18:13 51°14.31 2°50.927 3.8 25 12.7 102840 48
2011-10-13 08:18:19 51°14.308 2°50.918 3 38 12.7 102840 48
2011-10-13 08:18:24 51°14.306 2°50.911 3.3 25 12.7 102840 49
2011-10-13 08:18:28 51°14.304 2°50.905 3.2 35 12.7 102840 49
2011-10-13 08:18:33 51°14.302 2°50.898 2.7 22 12.7 102840 48
2011-10-13 08:18:38 51°14.3 2°50.891 1.4 33 12.7 102840 48
2011-10-13 08:18:44 51°14.297 2°50.883 2.1 23 12.8 102840 48
2011-10-13 08:18:48 51°14.295 2°50.877 3.9 36 12.8 102840 48
2011-10-13 08:18:53 51°14.293 2°50.87 3.3 29 12.8 102840 49
2011-10-13 08:18:59 51°14.29 2°50.862 2.5 36 12.8 102840 49
2011-10-13 08:19:04 51°14.288 2°50.855 3.1 21 12.9 102840 51
2011-10-13 08:19:08 51°14.286 2°50.849 1.1 32 12.9 102840 51
2011-10-13 08:19:13 51°14.284 2°50.842 2.4 19 13 102840 49
2011-10-13 08:19:19 51°14.282 2°50.834 3.8 32 13 102840 49
2011-10-13 08:19:24 51°14.279 2°50.827 3.6 22 13.1 102850 50
2011-10-13 08:19:28 51°14.277 2°50.821 2.3 33 13.1 102850 50
2011-10-13 08:19:33 51°14.275 2°50.814 1.8 25 13.1 102840 51
2011-10-13 08:19:39 51°14.272 2°50.806 2.4 40 13.1 102840 51
2011-10-13 08:19:44 51°14.27 2°50.799 1.9 27 13.1 102840 48
2011-10-13 08:19:48 51°14.268 2°50.794 2 38 13.1 102840 48
2011-10-13 08:19:54 51°14.265 2°50.785 2.1 26 13.2 102840 49
2011-10-13 08:19:59 51°14.263 2°50.778 1.7 39 13.2 102840 49
2011-10-13 08:20:03 51°14.261 2°50.773 4.2 27 13.2 102840 50
2011-10-13 08:20:08 51°14.259 2°50.766 3.6 36 13.2 102840 50
2011-10-13 08:20:13 51°14.256 2°50.759 3.3 27 13.3 102840 49
2011-10-13 08:20:19 51°14.254 2°50.751 2.6 40 13.3 102840 49
2011-10-13 08:20:24 51°14.251 2°50.744 3.5 24 13.3 102850 50
2011-10-13 08:20:28 51°14.25 2°50.738 5.2 39 13.3 102850 50
2011-10-13 08:20:33 51°14.246 2°50.732 4.7 26 13.3 102840 48
2011-10-13 08:20:38 51°14.245 2°50.725 4.4 36 13.3 102840 48
2011-10-13 08:20:44 51°14.241 2°50.717 3.9 26 13.4 102840 48
2011-10-13 08:20:48 51°14.24 2°50.711 3.8 33 13.4 102840 48
2011-10-13 08:20:53 51°14.237 2°50.705 0.9 28 13.4 102850 48
2011-10-13 08:20:58 51°14.235 2°50.697 1.5 37 13.4 102850 48
2011-10-13 08:21:04 51°14.232 2°50.689 0.7 25 13.3 102850 47
2011-10-13 08:21:08 51°14.23 2°50.684 0.7 32 13.3 102850 47
2011-10-13 08:21:13 51°14.227 2°50.677 0.2 22 13.3 102840 47
2011-10-13 08:21:18 51°14.224 2°50.67 2 41 13.3 102840 47
2011-10-13 08:21:24 51°14.222 2°50.662 1.5 28 13.3 102840 47
2011-10-13 08:21:28 51°14.22 2°50.657 3.9 40 13.3 102840 47
2011-10-13 08:21:33 51°14.217 2°50.65 3.4 29 13.3 102840 46
2011-10-13 08:21:39 51°14.214 2°50.642 2.5 37 13.3 102840 46
2011-10-13 08:21:44 51°14.212 2°50.635 2.9 23 13.3 102850 49
2011-10-13 08:21:48 51°14.21 2°50.629 3.1 38 13.3 102850 49
2011-10-13 08:21:54 51°14.207 2°50.621 2.4 26 13.3 102850 46
2011-10-13 08:21:59 51°14.205 2°50.614 2.1 34 13.3 102850 46
2011-10-13 08:22:03 51°14.203 2°50.609 2.2 29 13.2 102840 48
2011-10-13 08:22:08 51°14.2 2°50.602 3.4 40 13.2 102840 48
2011-10-13 08:22:13 51°14.198 2°50.595 3.1 28 13.2 102840 47
2011-10-13 08:22:19 51°14.195 2°50.587 4.6 38 13.2 102840 47
2011-10-13 08:22:24 51°14.193 2°50.58 3.9 28 13.2 102840 47
2011-10-13 08:22:28 51°14.191 2°50.574 2.3 41 13.2 102840 47
2011-10-13 08:22:33 51°14.189 2°50.567 2.3 23 13.3 102840 47
2011-10-13 08:22:39 51°14.185 2°50.559 2.9 34 13.3 102840 47
2011-10-13 08:22:44 51°14.184 2°50.552 3.1 23 13.3 102840 47
2011-10-13 08:22:48 51°14.181 2°50.547 0.1 35 13.3 102840 47
2011-10-13 08:22:53 51°14.18 2°50.539 0.1 24 13.4 102840 49
2011-10-13 08:22:59 51°14.176 2°50.531 0.4 33 13.4 102840 49
2011-10-13 08:23:04 51°14.175 2°50.524 0.2 22 13.4 102840 48
2011-10-13 08:23:08 51°14.172 2°50.519 0.1 35 13.4 102840 48
2011-10-13 08:23:13 51°14.171 2°50.511 -999 24 13.4 102840 47
2011-10-13 08:23:18 51°14.168 2°50.505 4.6 37 13.4 102840 47
2011-10-13 08:23:24 51°14.166 2°50.496 4.8 21 13.3 102840 47
2011-10-13 08:23:28 51°14.163 2°50.49 4 37 13.3 102840 47
2011-10-13 08:23:33 51°14.162 2°50.483 4.3 19 13.3 102840 47
2011-10-13 08:23:39 51°14.158 2°50.475 4.5 31 13.3 102840 47
2011-10-13 08:23:44 51°14.157 2°50.468 4.2 19 13.4 102840 47
2011-10-13 08:23:48 51°14.155 2°50.462 4 38 13.4 102840 47
2011-10-13 08:23:53 51°14.153 2°50.455 3.7 20 13.3 102850 46
2011-10-13 08:23:59 51°14.15 2°50.447 3.5 39 13.3 102850 46
2011-10-13 08:24:03 51°14.148 2°50.441 4.6 24 13.3 102840 46
2011-10-13 08:24:08 51°14.146 2°50.434 2.9 31 13.3 102840 46
2011-10-13 08:24:14 51°14.144 2°50.425 2.2 27 13.2 102840 46
2011-10-13 08:24:19 51°14.141 2°50.418 4.2 34 13.2 102840 46
2011-10-13 08:24:23 51°14.139 2°50.412 4.4 27 13.2 102840 46
2011-10-13 08:24:28 51°14.137 2°50.406 4.3 39 13.2 102840 46
2011-10-13 08:24:33 51°14.135 2°50.399 4.7 23 13.2 102850 46
2011-10-13 08:24:39 51°14.133 2°50.39 3.2 34 13.2 102850 46
2011-10-13 08:24:44 51°14.13 2°50.383 2.5 29 13.2 102840 47
2011-10-13 08:24:48 51°14.129 2°50.377 1.9 31 13.2 102840 47
2011-10-13 08:24:53 51°14.126 2°50.37 0.8 27 13.2 102840 47
2011-10-13 08:24:59 51°14.124 2°50.361 0.2 34 13.2 102840 47
2011-10-13 08:25:04 51°14.122 2°50.354 0.1 23 13.2 102840 49
2011-10-13 08:25:08 51°14.12 2°50.349 3.9 40 13.2 102840 49
2011-10-13 08:25:13 51°14.118 2°50.342 3.1 21 13.2 102840 48
2011-10-13 08:25:18 51°14.116 2°50.334 3.1 38 13.2 102840 48
2011-10-13 08:25:24 51°14.113 2°50.326 3.4 23 13.3 102840 47
2011-10-13 08:25:28 51°14.112 2°50.32 2.5 30 13.3 102840 47
2011-10-13 08:25:33 51°14.109 2°50.313 1.8 21 13.2 102850 48
2011-10-13 08:25:39 51°14.107 2°50.304 0.1 33 13.2 102850 48
2011-10-13 08:25:44 51°14.105 2°50.297 0.1 28 13.2 102840 47
2011-10-13 08:25:48 51°14.103 2°50.291 0.1 32 13.2 102840 47
2011-10-13 08:25:53 51°14.101 2°50.284 1.6 22 13.2 102840 47
2011-10-13 08:25:59 51°14.099 2°50.275 0.1 37 13.2 102840 47
2011-10-13 08:26:03 51°14.097 2°50.27 0.1 26 13.2 102840 47
2011-10-13 08:26:08 51°14.095 2°50.262 -999 35 13.2 102840 47
2011-10-13 08:26:13 51°14.092 2°50.255 -999 24 13.2 102840 48
2011-10-13 08:26:18 51°14.09 2°50.248 -999 35 13.2 102840 48
2011-10-13 08:26:23 51°14.088 2°50.241 -999 24 13.2 102840 46
2011-10-13 08:26:28 51°14.086 2°50.234 -999 35 13.2 102840 46
2011-10-13 08:26:33 51°14.083 2°50.227 -999 24 13.1 102840 46
2011-10-13 08:26:39 51°14.081 2°50.218 -999 35 13.1 102840 46
2011-10-13 08:26:44 51°14.079 2°50.211 -999 24 13.1 102840 46
2011-10-13 08:26:48 51°14.077 2°50.205 -999 35 13.1 102840 46
2011-10-13 08:26:53 51°14.074 2°50.198 -999 24 13 102850 45
2011-10-13 08:26:59 51°14.072 2°50.19 -999 35 13 102850 45
2011-10-13 08:27:04 51°14.07 2°50.183 -999 24 13.1 102840 47
2011-10-13 08:27:08 51°14.068 2°50.177 -999 35 13.1 102840 47
2011-10-13 08:27:13 51°14.066 2°50.17 -999 24 13 102840 47
2011-10-13 08:27:19 51°14.063 2°50.161 0.1 35 13 102840 47
2011-10-13 08:27:24 51°14.061 2°50.154 0.1 29 13 102840 46
2011-10-13 08:27:28 51°14.059 2°50.148 0.1 35 13 102840 46
2011-10-13 08:27:33 51°14.057 2°50.141 0.9 29 13 102840 46
2011-10-13 08:27:38 51°14.055 2°50.134 0.1 35 13 102840 46
2011-10-13 08:27:44 51°14.054 2°50.125 0.1 24 13 102840 46
2011-10-13 08:27:48 51°14.052 2°50.119 0.3 38 13 102840 46
2011-10-13 08:27:53 51°14.05 2°50.112 3.8 20 13 102840 47
2011-10-13 08:27:59 51°14.048 2°50.103 4.7 31 13 102840 47
2011-10-13 08:28:04 51°14.046 2°50.096 4.5 27 13 102840 49
2011-10-13 08:28:08 51°14.044 2°50.091 3.8 38 13 102840 49
2011-10-13 08:28:13 51°14.042 2°50.083 2.3 20 13.1 102840 47
2011-10-13 08:28:19 51°14.04 2°50.075 2 37 13.1 102840 47
2011-10-13 08:28:24 51°14.038 2°50.067 4.5 27 13 102840 47
2011-10-13 08:28:28 51°14.037 2°50.062 4 37 13 102840 47
2011-10-13 08:28:33 51°14.035 2°50.055 3.1 29 13 102840 48
2011-10-13 08:28:39 51°14.033 2°50.046 2.4 32 13 102840 48
2011-10-13 08:28:43 51°14.032 2°50.04 3 22 13 102840 46
2011-10-13 08:28:48 51°14.03 2°50.033 3.5 37 13 102840 46
2011-10-13 08:28:54 51°14.028 2°50.024 3.3 24 13 102840 48
2011-10-13 08:28:59 51°14.027 2°50.017 3.6 40 13 102840 48
2011-10-13 08:29:04 51°14.025 2°50.009 3.8 27 13 102840 48
2011-10-13 08:29:08 51°14.024 2°50.004 4.2 37 13 102840 48
2011-10-13 08:29:13 51°14.022 2°49.996 3.6 22 13 102840 48
2011-10-13 08:29:19 51°14.02 2°49.987 3.1 36 13 102840 48
2011-10-13 08:29:24 51°14.019 2°49.98 2.7 21 13 102850 46
2011-10-13 08:29:28 51°14.018 2°49.974 2.6 31 13 102850 46
2011-10-13 08:29:33 51°14.016 2°49.967 3 25 12.9 102840 46
2011-10-13 08:29:39 51°14.014 2°49.958 5.1 32 12.9 102840 46
2011-10-13 08:29:44 51°14.013 2°49.951 3.1 25 12.9 102840 47
2011-10-13 08:29:48 51°14.011 2°49.945 2.9 39 12.9 102840 47
2011-10-13 08:29:53 51°14.01 2°49.938 2.6 26 13 102840 48
2011-10-13 08:29:59 51°14.008 2°49.929 3.9 33 13 102840 48
2011-10-13 08:30:04 51°14.006 2°49.922 4.3 24 13 102840 49
2011-10-13 08:30:08 51°14.005 2°49.916 2.3 40 13 102840 49
2011-10-13 08:30:13 51°14.004 2°49.908 3.1 23 13 102840 47
2011-10-13 08:30:19 51°14.002 2°49.9 2.6 40 13 102840 47
2011-10-13 08:30:24 51°14 2°49.893 2.5 22 13 102850 49
2011-10-13 08:30:28 51°13.999 2°49.887 3.7 38 13 102850 49
2011-10-13 08:30:33 51°13.997 2°49.879 0.5 28 13.1 102850 49
2011-10-13 08:30:39 51°13.995 2°49.87 0.8 32 13.1 102850 49
2011-10-13 08:30:43 51°13.994 2°49.864 0.3 22 13.1 102840 47
2011-10-13 08:30:48 51°13.992 2°49.857 0.2 38 13.1 102840 47
2011-10-13 08:30:53 51°13.991 2°49.85 0.1 20 13.2 102840 48
2011-10-13 08:30:58 51°13.989 2°49.842 1.8 33 13.2 102840 48
2011-10-13 08:31:04 51°13.987 2°49.833 3.1 23 13.2 102850 48
2011-10-13 08:31:08 51°13.986 2°49.827 3.8 31 13.2 102850 48
2011-10-13 08:31:13 51°13.984 2°49.82 3.1 21 13.3 102840 49
2011-10-13 08:31:19 51°13.982 2°49.811 2.3 37 13.3 102840 49
2011-10-13 08:31:24 51°13.98 2°49.804 3.7 19 13.3 102840 47
2011-10-13 08:31:28 51°13.979 2°49.798 3.8 34 13.3 102840 47
2011-10-13 08:31:34 51°13.977 2°49.789 1.9 29 13.4 102840 48
2011-10-13 08:31:39 51°13.976 2°49.782 0.1 39 13.4 102840 48
2011-10-13 08:31:44 51°13.974 2°49.775 0.1 21 13.4 102840 47
2011-10-13 08:31:48 51°13.973 2°49.769 3.3 37 13.4 102840 47
2011-10-13 08:31:53 51°13.971 2°49.761 3.5 25 13.4 102840 48
2011-10-13 08:31:59 51°13.969 2°49.752 2.6 33 13.4 102840 48
2011-10-13 08:32:04 51°13.967 2°49.745 2.9 28 13.4 102850 46
2011-10-13 08:32:08 51°13.966 2°49.739 3.3 34 13.4 102850 46
2011-10-13 08:32:13 51°13.964 2°49.731 2.7 29 13.4 102850 46
2011-10-13 08:32:19 51°13.962 2°49.722 3.5 33 13.4 102850 46
2011-10-13 08:32:24 51°13.96 2°49.715 3.7 24 13.4 102840 47
2011-10-13 08:32:28 51°13.959 2°49.709 3.3 32 13.4 102840 47
2011-10-13 08:32:33 51°13.957 2°49.701 2.9 20 13.3 102850 45
2011-10-13 08:32:39 51°13.955 2°49.692 4.4 40 13.3 102850 45
2011-10-13 08:32:43 51°13.953 2°49.686 5 29 13.3 102850 46
2011-10-13 08:32:48 51°13.951 2°49.679 4.3 33 13.3 102850 46
2011-10-13 08:32:53 51°13.949 2°49.672 4.3 20 13.3 102840 47
2011-10-13 08:32:58 51°13.948 2°49.664 3.1 34 13.3 102840 47
2011-10-13 08:33:04 51°13.946 2°49.655 3.1 28 13.3 102840 46
2011-10-13 08:33:08 51°13.944 2°49.65 3 33 13.3 102840 46
2011-10-13 08:33:13 51°13.942 2°49.642 3.7 26 13.3 102840 47
2011-10-13 08:33:19 51°13.94 2°49.633 5 38 13.3 102840 47
2011-10-13 08:33:24 51°13.938 2°49.626 6.2 21 13.3 102840 47
2011-10-13 08:33:28 51°13.937 2°49.62 5 40 13.3 102840 47
2011-10-13 08:33:33 51°13.935 2°49.612 4.9 23 13.4 102840 48
2011-10-13 08:33:39 51°13.932 2°49.603 4.7 40 13.4 102840 48
2011-10-13 08:33:44 51°13.93 2°49.596 4 27 13.4 102840 48
2011-10-13 08:33:48 51°13.928 2°49.59 4.5 37 13.4 102840 48
2011-10-13 08:33:53 51°13.926 2°49.583 4.4 27 13.3 102840 46
2011-10-13 08:33:59 51°13.924 2°49.574 4 39 13.3 102840 46
2011-10-13 08:34:03 51°13.922 2°49.568 2.4 26 13.2 102840 45
2011-10-13 08:34:08 51°13.92 2°49.561 2.9 36 13.2 102840 45
2011-10-13 08:34:13 51°13.918 2°49.553 3.7 19 13.2 102850 46
2011-10-13 08:34:18 51°13.916 2°49.546 3.1 37 13.2 102850 46
2011-10-13 08:34:24 51°13.914 2°49.537 3.9 25 13.2 102840 48
2011-10-13 08:34:28 51°13.912 2°49.531 3.4 32 13.2 102840 48
2011-10-13 08:34:33 51°13.91 2°49.524 4.2 22 13.3 102840 47
2011-10-13 08:34:39 51°13.908 2°49.515 3.4 32 13.3 102840 47
2011-10-13 08:34:44 51°13.907 2°49.508 3 23 13.3 102840 47
2011-10-13 08:34:48 51°13.905 2°49.502 3.6 36 13.3 102840 47
2011-10-13 08:34:53 51°13.903 2°49.495 4.8 27 13.3 102850 47
2011-10-13 08:34:59 51°13.901 2°49.486 3.3 37 13.3 102850 47
2011-10-13 08:35:03 51°13.9 2°49.48 4.3 28 13.2 102840 46
2011-10-13 08:35:08 51°13.898 2°49.473 4.5 32 13.2 102840 46
2011-10-13 08:35:14 51°13.896 2°49.464 4.4 22 13.2 102840 46
2011-10-13 08:35:19 51°13.894 2°49.456 3.6 37 13.2 102840 46
2011-10-13 08:35:23 51°13.892 2°49.45 4.2 21 13.2 102840 48
2011-10-13 08:35:28 51°13.891 2°49.443 4.8 40 13.2 102840 48
2011-10-13 08:35:33 51°13.889 2°49.435 3.8 21 13.2 102840 46
2011-10-13 08:35:39 51°13.887 2°49.426 5.2 36 13.2 102840 46
2011-10-13 08:35:44 51°13.886 2°49.419 5.1 23 13.2 102840 46
2011-10-13 08:35:48 51°13.884 2°49.413 3.5 40 13.2 102840 46
2011-10-13 08:35:53 51°13.883 2°49.406 3.1 21 13.2 102840 46
2011-10-13 08:35:59 51°13.881 2°49.397 3.2 38 13.2 102840 46
2011-10-13 08:36:04 51°13.879 2°49.389 3 26 13.2 102840 46
2011-10-13 08:36:08 51°13.877 2°49.383 2.1 30 13.2 102840 46
2011-10-13 08:36:13 51°13.876 2°49.376 2.7 19 13.1 102840 48
2011-10-13 08:36:19 51°13.874 2°49.367 2.7 33 13.1 102840 48
2011-10-13 08:36:24 51°13.872 2°49.359 2.3 23 13.1 102840 48
2011-10-13 08:36:28 51°13.871 2°49.353 3.4 39 13.1 102840 48
2011-10-13 08:36:33 51°13.869 2°49.346 2.9 20 13.2 102850 47
2011-10-13 08:36:38 51°13.867 2°49.338 3.1 32 13.2 102850 47
2011-10-13 08:36:44 51°13.865 2°49.33 2.5 26 13.2 102850 49
2011-10-13 08:36:48 51°13.864 2°49.324 3.4 33 13.2 102850 49
2011-10-13 08:36:53 51°13.862 2°49.316 2.8 23 13.2 102840 48
2011-10-13 08:36:59 51°13.86 2°49.308 2.5 41 13.2 102840 48
2011-10-13 08:37:04 51°13.858 2°49.3 2.4 21 13.2 102850 48
2011-10-13 08:37:08 51°13.857 2°49.294 1.5 32 13.2 102850 48
2011-10-13 08:37:13 51°13.855 2°49.287 3.1 21 13.3 102850 47
2011-10-13 08:37:18 51°13.854 2°49.28 2.8 33 13.3 102850 47
2011-10-13 08:37:23 51°13.852 2°49.272 2.4 29 13.3 102850 48
2011-10-13 08:37:28 51°13.85 2°49.265 2.8 34 13.3 102850 48
2011-10-13 08:37:33 51°13.848 2°49.258 1.9 29 13.3 102850 46
2011-10-13 08:37:39 51°13.847 2°49.249 3.1 34 13.3 102850 46
2011-10-13 08:37:44 51°13.845 2°49.242 2.7 23 13.3 102840 48
2011-10-13 08:37:48 51°13.844 2°49.235 2.6 34 13.3 102840 48
2011-10-13 08:37:53 51°13.842 2°49.228 2.5 25 13.4 102850 47
2011-10-13 08:37:59 51°13.84 2°49.219 2.3 32 13.4 102850 47
2011-10-13 08:38:04 51°13.838 2°49.212 2.8 22 13.4 102850 49
2011-10-13 08:38:08 51°13.837 2°49.206 3.3 31 13.4 102850 49
2011-10-13 08:38:13 51°13.836 2°49.199 3.1 22 13.5 102850 47
2011-10-13 08:38:19 51°13.834 2°49.19 3.1 38 13.5 102850 47
2011-10-13 08:38:24 51°13.832 2°49.183 2.3 20 13.5 102850 49
2011-10-13 08:38:28 51°13.831 2°49.176 2.4 40 13.5 102850 49
2011-10-13 08:38:33 51°13.829 2°49.169 2.3 21 13.6 102850 49
2011-10-13 08:38:38 51°13.828 2°49.162 2.7 38 13.6 102850 49
2011-10-13 08:38:44 51°13.825 2°49.153 2.7 20 13.7 102850 48
2011-10-13 08:38:48 51°13.824 2°49.147 3.2 31 13.7 102850 48
2011-10-13 08:38:53 51°13.822 2°49.14 2.6 25 13.7 102840 48
2011-10-13 08:38:59 51°13.821 2°49.131 1.8 38 13.7 102840 48
2011-10-13 08:39:04 51°13.818 2°49.124 2.8 20 13.7 102850 49
2011-10-13 08:39:08 51°13.817 2°49.118 3.6 38 13.7 102850 49
2011-10-13 08:39:13 51°13.815 2°49.111 3.4 26 13.8 102850 47
2011-10-13 08:39:19 51°13.813 2°49.102 5.3 34 13.8 102850 47
2011-10-13 08:39:24 51°13.812 2°49.094 5 22 13.8 102850 47
2011-10-13 08:39:28 51°13.81 2°49.089 3.6 32 13.8 102850 47
2011-10-13 08:39:33 51°13.808 2°49.081 3.2 21 13.8 102850 47
2011-10-13 08:39:38 51°13.806 2°49.074 4.2 38 13.8 102850 47
2011-10-13 08:39:43 51°13.805 2°49.066 4.3 26 13.7 102850 47
2011-10-13 08:39:48 51°13.803 2°49.059 3.5 37 13.7 102850 47
2011-10-13 08:39:53 51°13.801 2°49.052 4.3 28 13.7 102850 47
2011-10-13 08:39:59 51°13.799 2°49.043 3.3 34 13.7 102850 47
2011-10-13 08:40:04 51°13.797 2°49.035 2.3 27 13.7 102850 45
2011-10-13 08:40:08 51°13.795 2°49.03 2.8 40 13.7 102850 45
2011-10-13 08:40:13 51°13.794 2°49.022 2.4 26 13.7 102850 44
2011-10-13 08:40:19 51°13.791 2°49.013 4.9 31 13.7 102850 44
2011-10-13 08:40:24 51°13.789 2°49.006 4.7 27 13.7 102850 46
2011-10-13 08:40:28 51°13.788 2°49 4.4 38 13.7 102850 46
2011-10-13 08:40:33 51°13.786 2°48.993 5.1 21 13.6 102850 47
2011-10-13 08:40:39 51°13.784 2°48.984 5.5 35 13.6 102850 47
2011-10-13 08:40:44 51°13.782 2°48.976 5.3 19 13.6 102850 46
2011-10-13 08:40:48 51°13.78 2°48.971 3.4 39 13.6 102850 46
2011-10-13 08:40:53 51°13.778 2°48.963 3.7 28 13.5 102850 45
2011-10-13 08:40:59 51°13.776 2°48.954 5.3 37 13.5 102850 45
2011-10-13 08:41:04 51°13.774 2°48.947 3.1 25 13.5 102850 45
2011-10-13 08:41:08 51°13.773 2°48.941 3.5 38 13.5 102850 45
2011-10-13 08:41:13 51°13.771 2°48.934 3.7 22 13.5 102850 46
2011-10-13 08:41:18 51°13.769 2°48.927 3.2 33 13.5 102850 46
2011-10-13 08:41:24 51°13.767 2°48.918 3 22 13.5 102850 47
2011-10-13 08:41:28 51°13.765 2°48.912 3.2 34 13.5 102850 47
2011-10-13 08:41:33 51°13.764 2°48.904 3.2 28 13.5 102860 47
2011-10-13 08:41:39 51°13.762 2°48.895 4.1 31 13.5 102860 47
2011-10-13 08:41:44 51°13.76 2°48.888 4.5 22 13.5 102850 48
2011-10-13 08:41:48 51°13.759 2°48.882 5.3 40 13.5 102850 48
2011-10-13 08:41:53 51°13.758 2°48.874 5.5 26 13.5 102860 48
2011-10-13 08:41:59 51°13.756 2°48.865 5.8 32 13.5 102860 48
2011-10-13 08:42:04 51°13.755 2°48.858 5.8 25 13.5 102860 46
2011-10-13 08:42:08 51°13.754 2°48.852 4.9 40 13.5 102860 46
2011-10-13 08:42:13 51°13.753 2°48.844 5.7 27 13.4 102850 45
2011-10-13 08:42:19 51°13.752 2°48.835 6.2 35 13.4 102850 45
2011-10-13 08:42:24 51°13.751 2°48.828 5.6 24 13.4 102850 45
2011-10-13 08:42:28 51°13.75 2°48.822 5.1 32 13.4 102850 45
2011-10-13 08:42:33 51°13.749 2°48.815 5 25 13.4 102860 46
2011-10-13 08:42:39 51°13.749 2°48.806 5.7 42 13.4 102860 46
2011-10-13 08:42:44 51°13.748 2°48.799 5.5 27 13.3 102850 46
2011-10-13 08:42:48 51°13.748 2°48.793 5.6 32 13.3 102850 46
2011-10-13 08:42:53 51°13.747 2°48.786 5.8 19 13.3 102850 45
2011-10-13 08:42:59 51°13.747 2°48.777 6.2 44 13.3 102850 45
2011-10-13 08:43:04 51°13.746 2°48.77 5.9 43 13.3 102850 47
2011-10-13 08:43:08 51°13.746 2°48.765 7.5 44 13.3 102850 47
2011-10-13 08:43:13 51°13.746 2°48.757 6.9 44 13.3 102850 47
2011-10-13 08:43:18 51°13.746 2°48.75 7.4 40 13.3 102850 47
2011-10-13 08:43:24 51°13.745 2°48.742 6.9 40 13.3 102850 46
2011-10-13 08:43:28 51°13.745 2°48.737 7.1 40 13.3 102850 46
2011-10-13 08:43:33 51°13.745 2°48.73 6.1 39 13.2 102850 46
2011-10-13 08:43:38 51°13.745 2°48.723 6.2 41 13.2 102850 46
2011-10-13 08:43:44 51°13.745 2°48.714 6.3 41 13.2 102850 46
2011-10-13 08:43:48 51°13.745 2°48.709 5.6 41 13.2 102850 46
2011-10-13 08:43:53 51°13.745 2°48.702 5.9 41 13.1 102850 45
2011-10-13 08:43:58 51°13.745 2°48.695 5.9 42 13.1 102850 45
2011-10-13 08:44:03 51°13.746 2°48.688 6.4 41 13.1 102850 47
2011-10-13 08:44:08 51°13.746 2°48.682 6.8 38 13.1 102850 47
2011-10-13 08:44:13 51°13.746 2°48.675 6.7 38 13.1 102850 47
2011-10-13 08:44:19 51°13.747 2°48.667 6.5 40 13.1 102850 47
2011-10-13 08:44:24 51°13.747 2°48.66 5.9 40 13 102850 47
2011-10-13 08:44:28 51°13.748 2°48.655 5.2 40 13 102850 47
2011-10-13 08:44:33 51°13.748 2°48.648 5.8 35 13 102850 47
2011-10-13 08:44:39 51°13.749 2°48.641 5.7 39 13 102850 47
2011-10-13 08:44:44 51°13.749 2°48.634 5.2 39 13 102850 47
2011-10-13 08:44:48 51°13.75 2°48.63 5.8 38 13 102850 47
2011-10-13 08:44:54 51°13.75 2°48.622 5.6 36 13 102850 48
2011-10-13 08:44:59 51°13.751 2°48.616 6.8 36 13 102850 48
2011-10-13 08:45:04 51°13.752 2°48.61 7 39 13.1 102850 49
2011-10-13 08:45:08 51°13.752 2°48.605 7 34 13.1 102850 49
2011-10-13 08:45:13 51°13.753 2°48.599 6.5 33 13 102850 47
2011-10-13 08:45:19 51°13.754 2°48.591 6.7 31 13 102850 47
2011-10-13 08:45:24 51°13.755 2°48.585 5.8 30 13.1 102850 48
2011-10-13 08:45:28 51°13.756 2°48.58 5.6 25 13.1 102850 48
2011-10-13 08:45:33 51°13.758 2°48.573 5.7 23 13 102850 46
2011-10-13 08:45:39 51°13.761 2°48.564 6 24 13 102850 46
2011-10-13 08:45:44 51°13.764 2°48.557 5.7 24 13 102850 47
2011-10-13 08:45:48 51°13.766 2°48.552 6.2 21 13 102850 47
2011-10-13 08:45:53 51°13.77 2°48.545 6.3 19 12.9 102860 47
2011-10-13 08:45:59 51°13.774 2°48.537 7.1 17 12.9 102860 47
2011-10-13 08:46:03 51°13.777 2°48.531 6 17 12.9 102850 48
2011-10-13 08:46:08 51°13.782 2°48.524 6.5 17 12.9 102850 48
2011-10-13 08:46:14 51°13.786 2°48.517 6.7 21 12.9 102850 48
2011-10-13 08:46:18 51°13.789 2°48.512 6.1 24 12.9 102850 48
2011-10-13 08:46:23 51°13.793 2°48.507 6 22 12.9 102850 48
2011-10-13 08:46:28 51°13.796 2°48.502 5.7 17 12.9 102850 48
2011-10-13 08:46:33 51°13.8 2°48.497 6 22 12.9 102850 48
2011-10-13 08:46:39 51°13.803 2°48.492 5.8 20 12.9 102850 48
2011-10-13 08:46:44 51°13.806 2°48.487 7 19 12.9 102850 48